• In France
  • List of Countries
  • For 7 days
  • Water Temperature
  • Satellite Maps
  • Weather Map
  • Weather Widgets
  • user-avatar
    Login

    Hourly Weather Manama

    Today, 25 September, Monday

    Time Temperature Precipitation Wind Pressure Humidity
    00:00 +33°C° 0 mm 1 mps 755 mmHg 52%
    01:00 +33°C° 0 mm 1 mps 755 mmHg 52%
    02:00 +32°C° 0 mm 1 mps 755 mmHg 53%
    03:00 +32°C° 0 mm 1 mps 755 mmHg 57%
    04:00 +32°C° 0 mm 1 mps 755 mmHg 57%
    05:00 +32°C° 0 mm 1 mps 755 mmHg 58%
    06:00 +29°C° 0 mm 0 mps 755 mmHg 59%
    07:00 +33°C° 0 mm 1 mps 755 mmHg 55%
    08:00 +34°C° 0 mm 1 mps 756 mmHg 50%
    09:00 +37°C° 0 mm 2 mps 756 mmHg 51%
    10:00 +38°C° 0 mm 2 mps 756 mmHg 46%
    11:00 +39°C° 0 mm 2 mps 756 mmHg 41%
    12:00 +40°C° 0 mm 2 mps 756 mmHg 37%
    13:00 +40°C° 0 mm 3 mps 755 mmHg 33%
    14:00 +42°C° 0 mm 3 mps 755 mmHg 30%
    15:00 +42°C° 0 mm 4 mps 755 mmHg 27%
    16:00 +41°C° 0 mm 4 mps 755 mmHg 31%
    17:00 +38°C° 0 mm 4 mps 755 mmHg 36%
    18:00 +37°C° 0 mm 4 mps 755 mmHg 40%
    19:00 +37°C° 0 mm 3 mps 755 mmHg 42%
    20:00 +36°C° 0 mm 3 mps 755 mmHg 44%
    21:00 +36°C° 0 mm 3 mps 755 mmHg 46%
    22:00 +35°C° 0 mm 2 mps 755 mmHg 48%
    23:00 +33°C° 0 mm 1 mps 755 mmHg 50%

    Tomorrow, 26 September, Tuesday

    Time Temperature Precipitation Wind Pressure Humidity
    00:00 +32°C° 0 mm 1 mps 755 mmHg 51%
    01:00 +32°C° 0 mm 1 mps 755 mmHg 51%
    02:00 +32°C° 0 mm 1 mps 755 mmHg 50%
    03:00 +31°C° 0 mm 1 mps 755 mmHg 49%
    04:00 +31°C° 0 mm 2 mps 755 mmHg 48%
    05:00 +31°C° 0 mm 2 mps 755 mmHg 47%
    06:00 +31°C° 0 mm 2 mps 755 mmHg 47%
    07:00 +34°C° 0 mm 2 mps 755 mmHg 41%
    08:00 +36°C° 0 mm 3 mps 756 mmHg 36%
    09:00 +38°C° 0 mm 3 mps 756 mmHg 30%
    10:00 +39°C° 0 mm 3 mps 756 mmHg 27%
    11:00 +40°C° 0 mm 3 mps 756 mmHg 24%
    12:00 +42°C° 0 mm 3 mps 755 mmHg 21%
    13:00 +42°C° 0 mm 3 mps 755 mmHg 21%
    14:00 +41°C° 0 mm 2 mps 754 mmHg 21%
    15:00 +41°C° 0 mm 2 mps 754 mmHg 21%
    16:00 +40°C° 0 mm 2 mps 754 mmHg 24%
    17:00 +39°C° 0 mm 2 mps 754 mmHg 28%
    18:00 +38°C° 0 mm 2 mps 754 mmHg 31%
    19:00 +37°C° 0 mm 2 mps 755 mmHg 33%
    20:00 +37°C° 0 mm 2 mps 755 mmHg 35%
    21:00 +36°C° 0 mm 2 mps 755 mmHg 37%
    22:00 +36°C° 0 mm 2 mps 755 mmHg 39%
    23:00 +35°C° 0 mm 3 mps 755 mmHg 42%

    Day after tomorrow, 27 September, Wednesday

    Time Temperature Precipitation Wind Pressure Humidity
    00:00 +35°C° 0 mm 3 mps 755 mmHg 45%
    01:00 +34°C° 0 mm 2 mps 755 mmHg 46%
    02:00 +34°C° 0 mm 2 mps 755 mmHg 46%
    03:00 +32°C° 0 mm 2 mps 755 mmHg 47%
    04:00 +32°C° 0 mm 1 mps 755 mmHg 46%
    05:00 +32°C° 0 mm 1 mps 755 mmHg 44%
    06:00 +32°C° 0 mm 1 mps 756 mmHg 42%
    07:00 +33°C° 0 mm 1 mps 756 mmHg 38%
    08:00 +35°C° 0 mm 1 mps 757 mmHg 34%
    09:00 +35°C° 0 mm 0 mps 757 mmHg 30%
    10:00 +39°C° 0 mm 1 mps 757 mmHg 28%
    11:00 +40°C° 0 mm 1 mps 756 mmHg 26%
    12:00 +40°C° 0 mm 1 mps 756 mmHg 24%
    13:00 +41°C° 0 mm 2 mps 756 mmHg 24%
    14:00 +41°C° 0 mm 2 mps 755 mmHg 24%
    15:00 +42°C° 0 mm 3 mps 755 mmHg 24%
    16:00 +40°C° 0 mm 3 mps 755 mmHg 27%
    17:00 +39°C° 0 mm 3 mps 755 mmHg 31%
    18:00 +38°C° 0 mm 3 mps 755 mmHg 34%
    19:00 +37°C° 0 mm 3 mps 755 mmHg 37%
    20:00 +37°C° 0 mm 3 mps 756 mmHg 40%
    21:00 +36°C° 0 mm 3 mps 756 mmHg 43%
    22:00 +35°C° 0 mm 2 mps 756 mmHg 46%
    23:00 +35°C° 0 mm 2 mps 755 mmHg 49%

    28 September, Thursday

    Time Temperature Precipitation Wind Pressure Humidity
    00:00 +34°C° 0 mm 2 mps 755 mmHg 51%
    01:00 +34°C° 0 mm 2 mps 755 mmHg 51%
    02:00 +34°C° 0 mm 2 mps 755 mmHg 52%
    03:00 +32°C° 0 mm 1 mps 755 mmHg 52%
    04:00 +32°C° 0 mm 1 mps 755 mmHg 51%
    05:00 +32°C° 0 mm 1 mps 756 mmHg 50%
    06:00 +32°C° 0 mm 2 mps 756 mmHg 49%
    07:00 +34°C° 0 mm 2 mps 756 mmHg 44%
    08:00 +36°C° 0 mm 2 mps 757 mmHg 39%
    09:00 +37°C° 0 mm 2 mps 757 mmHg 34%
    10:00 +39°C° 0 mm 2 mps 757 mmHg 31%
    11:00 +40°C° 0 mm 1 mps 756 mmHg 27%
    12:00 +41°C° 0 mm 1 mps 756 mmHg 24%
    13:00 +41°C° 0 mm 2 mps 755 mmHg 23%
    14:00 +41°C° 0 mm 2 mps 755 mmHg 21%
    15:00 +42°C° 0 mm 2 mps 755 mmHg 20%
    16:00 +40°C° 0 mm 2 mps 755 mmHg 23%
    17:00 +39°C° 0 mm 2 mps 755 mmHg 27%
    18:00 +38°C° 0 mm 2 mps 755 mmHg 30%
    19:00 +37°C° 0 mm 2 mps 755 mmHg 32%
    20:00 +36°C° 0 mm 2 mps 755 mmHg 33%
    21:00 +35°C° 0 mm 1 mps 756 mmHg 35%
    22:00 +34°C° 0 mm 1 mps 755 mmHg 36%
    23:00 +34°C° 0 mm 1 mps 755 mmHg 38%

    29 September, Friday

    Time Temperature Precipitation Wind Pressure Humidity
    00:00 +33°C° 0 mm 1 mps 755 mmHg 39%
    01:00 +33°C° 0 mm 1 mps 755 mmHg 39%
    02:00 +34°C° 0 mm 2 mps 754 mmHg 39%
    03:00 +34°C° 0 mm 2 mps 754 mmHg 39%
    04:00 +34°C° 0 mm 3 mps 754 mmHg 38%
    05:00 +34°C° 0 mm 3 mps 755 mmHg 36%
    06:00 +34°C° 0 mm 3 mps 755 mmHg 34%
    07:00 +35°C° 0 mm 3 mps 755 mmHg 29%
    08:00 +37°C° 0 mm 3 mps 756 mmHg 25%
    09:00 +39°C° 0 mm 3 mps 756 mmHg 20%
    10:00 +40°C° 0 mm 3 mps 756 mmHg 18%
    11:00 +40°C° 0 mm 2 mps 755 mmHg 17%
    12:00 +41°C° 0 mm 1 mps 755 mmHg 16%
    13:00 +42°C° 0 mm 2 mps 754 mmHg 15%
    14:00 +42°C° 0 mm 2 mps 754 mmHg 15%
    15:00 +42°C° 0 mm 2 mps 753 mmHg 14%
    16:00 +41°C° 0 mm 2 mps 754 mmHg 16%
    17:00 +40°C° 0 mm 2 mps 754 mmHg 19%
    18:00 +38°C° 0 mm 2 mps 754 mmHg 21%
    19:00 +38°C° 0 mm 2 mps 754 mmHg 23%
    20:00 +37°C° 0 mm 2 mps 755 mmHg 25%
    21:00 +36°C° 0 mm 2 mps 755 mmHg 27%
    22:00 +36°C° 0 mm 2 mps 755 mmHg 30%
    23:00 +35°C° 0 mm 2 mps 754 mmHg 33%

    30 September, Saturday

    Time Temperature Precipitation Wind Pressure Humidity
    00:00 +34°C° 0 mm 1 mps 754 mmHg 36%
    01:00 +33°C° 0 mm 1 mps 754 mmHg 38%
    02:00 +33°C° 0 mm 1 mps 754 mmHg 40%
    03:00 +32°C° 0 mm 1 mps 754 mmHg 42%
    04:00 +32°C° 0 mm 2 mps 754 mmHg 42%
    05:00 +32°C° 0 mm 2 mps 755 mmHg 42%
    06:00 +32°C° 0 mm 2 mps 755 mmHg 42%
    07:00 +35°C° 0 mm 2 mps 756 mmHg 38%
    08:00 +35°C° 0 mm 1 mps 756 mmHg 34%
    09:00 +37°C° 0 mm 1 mps 756 mmHg 30%
    10:00 +39°C° 0 mm 1 mps 756 mmHg 28%
    11:00 +40°C° 0 mm 1 mps 756 mmHg 25%
    12:00 +41°C° 0 mm 1 mps 755 mmHg 23%
    13:00 +41°C° 0 mm 2 mps 755 mmHg 22%
    14:00 +42°C° 0 mm 3 mps 755 mmHg 21%
    15:00 +42°C° 0 mm 3 mps 754 mmHg 20%
    16:00 +40°C° 0 mm 3 mps 755 mmHg 25%
    17:00 +39°C° 0 mm 3 mps 755 mmHg 29%
    18:00 +38°C° 0 mm 3 mps 755 mmHg 33%
    19:00 +37°C° 0 mm 3 mps 755 mmHg 33%
    20:00 +37°C° 0 mm 3 mps 756 mmHg 33%
    21:00 +37°C° 0 mm 2 mps 756 mmHg 34%
    22:00 +36°C° 0 mm 2 mps 756 mmHg 34%
    23:00 +36°C° 0 mm 2 mps 755 mmHg 35%
    Show more